| time (UTC) | temp F | wind direction | speed MPH | gust MPH | rain 1hr in | rain 24hr in | rain mn in | humidity % | barometer mb |
| 20260509041559 | 40 | 117 | 0.0 | 0.0 | 0.00 | 0.01 | 0.00 | 56 | 1014.5 |
| 20260509040054 | 39 | 116 | 0.0 | 0.0 | 0.00 | 0.01 | 0.00 | 57 | 1014.4 |
| 20260509034554 | 39 | 116 | 0.0 | 0.0 | 0.00 | 0.01 | 0.01 | 59 | 1014.2 |
| 20260509033053 | 39 | 116 | 0.0 | 0.0 | 0.00 | 0.01 | 0.01 | 59 | 1014.1 |
| 20260509031606 | 40 | 116 | 0.0 | 0.0 | 0.00 | 0.01 | 0.01 | 61 | 1014.3 |
| 20260509030052 | 40 | 116 | 0.0 | 0.0 | 0.00 | 0.01 | 0.01 | 63 | 1014.3 |
| 20260509024551 | 40 | 116 | 0.0 | 0.0 | 0.00 | 0.01 | 0.01 | 65 | 1014.3 |
| 20260509023102 | 41 | 116 | 0.0 | 0.0 | 0.00 | 0.01 | 0.01 | 67 | 1014.2 |
| 20260509021550 | 41 | 116 | 0.0 | 0.0 | 0.00 | 0.01 | 0.01 | 68 | 1014.2 |
| 20260509020052 | 42 | 116 | 0.0 | 0.0 | 0.00 | 0.01 | 0.01 | 68 | 1014.1 |
| 20260509014547 | 42 | 117 | 0.0 | 0.0 | 0.00 | 0.01 | 0.01 | 69 | 1013.8 |
| 20260509013048 | 42 | 116 | 0.0 | 0.0 | 0.00 | 0.01 | 0.01 | 69 | 1013.8 |
| 20260509011546 | 42 | 116 | 0.0 | 0.0 | 0.00 | 0.01 | 0.01 | 70 | 1013.5 |
| 20260509010046 | 43 | 116 | 0.0 | 0.0 | 0.00 | 0.01 | 0.01 | 69 | 1013.2 |
| 20260509004542 | 44 | 117 | 0.0 | 0.0 | 0.00 | 0.01 | 0.01 | 68 | 1012.9 |
| 20260509003046 | 45 | 116 | 0.0 | 0.0 | 0.00 | 0.01 | 0.01 | 64 | 1012.5 |
| 20260509001540 | 47 | 117 | 0.0 | 1.0 | 0.00 | 0.01 | 0.01 | 63 | 1012.4 |
| 20260509000043 | 49 | 116 | 0.0 | 0.0 | 0.00 | 0.01 | 0.01 | 60 | 1012.4 |
| 20260508234541 | 50 | 116 | 0.0 | 1.0 | 0.00 | 0.01 | 0.01 | 53 | 1012.2 |
| 20260508233041 | 51 | 117 | 0.0 | 1.0 | 0.00 | 0.01 | 0.01 | 53 | 1011.9 |
| 20260508231540 | 53 | 206 | 0.0 | 2.0 | 0.00 | 0.01 | 0.01 | 50 | 1011.8 |
| 20260508230049 | 53 | 254 | 0.0 | 3.0 | 0.00 | 0.01 | 0.01 | 48 | 1011.8 |
| 20260508224546 | 53 | 48 | 1.0 | 5.0 | 0.00 | 0.01 | 0.01 | 49 | 1011.8 |
| 20260508223037 | 54 | 130 | 0.0 | 5.0 | 0.00 | 0.01 | 0.01 | 50 | 1011.9 |
| 20260508221536 | 54 | 211 | 1.0 | 5.0 | 0.00 | 0.01 | 0.01 | 50 | 1011.9 |
| 20260508220106 | 53 | 132 | 0.0 | 4.0 | 0.00 | 0.01 | 0.01 | 54 | 1011.8 |
| 20260508214536 | 53 | 110 | 0.0 | 3.0 | 0.00 | 0.01 | 0.01 | 55 | 1011.9 |
| 20260508213037 | 53 | 207 | 1.0 | 7.0 | 0.00 | 0.01 | 0.01 | 54 | 1012.1 |
| 20260508211541 | 53 | 200 | 2.0 | 6.0 | 0.00 | 0.01 | 0.01 | 53 | 1012.0 |
| 20260508210035 | 53 | 192 | 2.0 | 7.0 | 0.00 | 0.01 | 0.01 | 53 | 1012.1 |
| 20260508204533 | 54 | 173 | 1.0 | 9.0 | 0.00 | 0.01 | 0.01 | 52 | 1012.1 |
| 20260508203033 | 54 | 190 | 2.0 | 8.0 | 0.00 | 0.01 | 0.01 | 55 | 1012.1 |
| 20260508201534 | 52 | 191 | 1.0 | 4.0 | 0.00 | 0.01 | 0.01 | 58 | 1012.2 |
| 20260508200031 | 52 | 195 | 1.0 | 7.0 | 0.00 | 0.01 | 0.01 | 59 | 1012.3 |
| 20260508194534 | 51 | 188 | 2.0 | 9.0 | 0.00 | 0.01 | 0.01 | 59 | 1012.4 |
| 20260508193030 | 52 | 247 | 1.0 | 4.0 | 0.00 | 0.01 | 0.01 | 59 | 1012.3 |
| 20260508191530 | 52 | 200 | 0.0 | 6.0 | 0.00 | 0.01 | 0.01 | 60 | 1012.4 |
| 20260508190034 | 51 | 207 | 2.0 | 5.0 | 0.00 | 0.01 | 0.01 | 63 | 1012.5 |
| 20260508184539 | 49 | 182 | 0.0 | 5.0 | 0.00 | 0.01 | 0.01 | 66 | 1012.5 |
| 20260508183028 | 49 | 138 | 0.0 | 6.0 | 0.00 | 0.01 | 0.01 | 66 | 1012.8 |
| 20260508181536 | 49 | 168 | 2.0 | 5.0 | 0.00 | 0.01 | 0.01 | 66 | 1013.0 |
| 20260508180027 | 48 | 245 | 1.0 | 6.0 | 0.00 | 0.01 | 0.01 | 68 | 1013.2 |
| 20260508174534 | 47 | 225 | 1.0 | 4.0 | 0.00 | 0.01 | 0.01 | 69 | 1013.3 |
| 20260508173026 | 46 | 213 | 1.0 | 6.0 | 0.00 | 0.01 | 0.01 | 69 | 1013.3 |
| 20260508171526 | 47 | 242 | 1.0 | 4.0 | 0.00 | 0.01 | 0.01 | 67 | 1013.2 |
| 20260508170025 | 48 | 194 | 0.0 | 7.0 | 0.00 | 0.01 | 0.01 | 64 | 1013.0 |
| 20260508164525 | 49 | 167 | 1.0 | 4.0 | 0.00 | 0.01 | 0.01 | 67 | 1012.8 |
| 20260508163034 | 48 | 180 | 3.0 | 5.0 | 0.00 | 0.01 | 0.01 | 66 | 1013.1 |
| 20260508161530 | 47 | 234 | 1.0 | 6.0 | 0.00 | 0.01 | 0.01 | 68 | 1013.3 |
| 20260508160023 | 46 | 200 | 2.0 | 7.0 | 0.00 | 0.01 | 0.01 | 69 | 1013.3 |
| 20260508154523 | 47 | 200 | 2.0 | 8.0 | 0.00 | 0.01 | 0.01 | 63 | 1013.1 |
| 20260508153022 | 50 | 201 | 5.0 | 12.0 | 0.00 | 0.01 | 0.01 | 55 | 1012.5 |
| 20260508151521 | 52 | 158 | 0.0 | 4.0 | 0.00 | 0.01 | 0.01 | 50 | 1012.0 |
| 20260508150024 | 53 | 100 | 0.0 | 2.0 | 0.00 | 0.01 | 0.01 | 51 | 1011.8 |
| 20260508144520 | 53 | 100 | 1.0 | 5.0 | 0.00 | 0.01 | 0.01 | 49 | 1011.9 |
| 20260508143024 | 53 | 155 | 1.0 | 3.0 | 0.00 | 0.01 | 0.01 | 52 | 1012.1 |
| 20260508141515 | 52 | 146 | 2.0 | 4.0 | 0.00 | 0.01 | 0.01 | 54 | 1012.1 |
| 20260508140023 | 51 | 46 | 0.0 | 5.0 | 0.00 | 0.01 | 0.01 | 52 | 1012.4 |
| 20260508134517 | 50 | 244 | 1.0 | 4.0 | 0.00 | 0.01 | 0.01 | 56 | 1012.4 |
| 20260508133009 | 50 | 32 | 0.0 | 3.0 | 0.00 | 0.01 | 0.01 | 61 | 1012.2 |
| 20260508131505 | 49 | 26 | 0.0 | 5.0 | 0.00 | 0.01 | 0.01 | 62 | 1012.7 |
| 20260508130004 | 48 | 184 | 0.0 | 3.0 | 0.00 | 0.01 | 0.01 | 66 | 1012.8 |
| 20260508124600 | 47 | 182 | 1.0 | 3.0 | 0.00 | 0.01 | 0.01 | 67 | 1012.9 |
| 20260508123107 | 46 | 80 | 0.0 | 3.0 | 0.00 | 0.01 | 0.01 | 68 | 1012.7 |
| 20260508121557 | 45 | 39 | 0.0 | 2.0 | 0.00 | 0.01 | 0.01 | 69 | 1013.2 |
| 20260508120053 | 45 | 34 | 0.0 | 1.0 | 0.00 | 0.01 | 0.01 | 69 | 1013.2 |
| 20260508114553 | 44 | 38 | 0.0 | 4.0 | 0.00 | 0.01 | 0.01 | 69 | 1013.1 |
| 20260508113059 | 44 | 58 | 0.0 | 5.0 | 0.00 | 0.01 | 0.01 | 69 | 1012.9 |
| 20260508111546 | 42 | 22 | 0.0 | 2.0 | 0.00 | 0.01 | 0.01 | 68 | 1012.9 |
| 20260508110041 | 42 | 78 | 0.0 | 0.0 | 0.00 | 0.01 | 0.01 | 66 | 1012.8 |
| 20260508104542 | 41 | 78 | 0.0 | 0.0 | 0.00 | 0.01 | 0.01 | 63 | 1012.8 |
| 20260508103040 | 40 | 78 | 0.0 | 0.0 | 0.00 | 0.01 | 0.01 | 62 | 1012.6 |
| 20260508101533 | 40 | 78 | 0.0 | 0.0 | 0.00 | 0.01 | 0.01 | 62 | 1012.4 |
| 20260508100030 | 39 | 78 | 0.0 | 0.0 | 0.00 | 0.01 | 0.01 | 63 | 1012.2 |
| 20260508094529 | 39 | 78 | 0.0 | 0.0 | 0.00 | 0.01 | 0.01 | 63 | 1012.1 |
| 20260508093028 | 38 | 78 | 0.0 | 0.0 | 0.00 | 0.01 | 0.01 | 65 | 1011.9 |
| 20260508091530 | 38 | 78 | 0.0 | 0.0 | 0.00 | 0.01 | 0.01 | 67 | 1011.7 |
| 20260508090026 | 38 | 78 | 0.0 | 0.0 | 0.00 | 0.01 | 0.01 | 65 | 1011.5 |
| 20260508084522 | 38 | 78 | 0.0 | 0.0 | 0.00 | 0.01 | 0.01 | 65 | 1011.5 |
| 20260508083021 | 38 | 78 | 0.0 | 0.0 | 0.00 | 0.01 | 0.01 | 64 | 1011.5 |
| 20260508081548 | 37 | 78 | 0.0 | 0.0 | 0.00 | 0.01 | 0.01 | 63 | 1011.4 |
| 20260508080018 | 37 | 78 | 0.0 | 0.0 | 0.00 | 0.01 | 0.01 | 64 | 1011.4 |
| 20260508074517 | 37 | 78 | 0.0 | 0.0 | 0.00 | 0.01 | 0.01 | 64 | 1011.4 |
| 20260508073017 | 37 | 78 | 0.0 | 0.0 | 0.00 | 0.01 | 0.01 | 64 | 1011.2 |
| 20260508071534 | 37 | 78 | 0.0 | 0.0 | 0.00 | 0.01 | 0.01 | 63 | 1011.1 |
| 20260508070015 | 37 | 78 | 0.0 | 0.0 | 0.00 | 0.01 | 0.01 | 61 | 1011.1 |
| 20260508064514 | 37 | 78 | 0.0 | 0.0 | 0.00 | 0.01 | 0.01 | 60 | 1011.2 |
| 20260508063028 | 37 | 78 | 0.0 | 0.0 | 0.00 | 0.01 | 0.01 | 58 | 1011.0 |
| 20260508061512 | 36 | 78 | 0.0 | 1.0 | 0.00 | 0.01 | 0.01 | 58 | 1011.0 |
| 20260508060011 | 36 | 78 | 0.0 | 2.0 | 0.00 | 0.01 | 0.01 | 60 | 1010.8 |
| 20260508054509 | 36 | 78 | 0.0 | 0.0 | 0.00 | 0.01 | 0.01 | 61 | 1010.9 |
| 20260508053008 | 36 | 78 | 0.0 | 0.0 | 0.00 | 0.01 | 0.01 | 62 | 1010.8 |
| 20260508051505 | 36 | 78 | 0.0 | 0.0 | 0.01 | 0.01 | 0.01 | 62 | 1011.0 |
| 20260508050004 | 37 | 78 | 0.0 | 0.0 | 0.01 | 0.01 | 0.01 | 62 | 1011.1 |
| 20260508044503 | 37 | 78 | 0.0 | 0.0 | 0.01 | 0.01 | 0.01 | 64 | 1010.9 |
| 20260508043002 | 37 | 78 | 0.0 | 0.0 | 0.01 | 0.01 | 0.01 | 64 | 1011.0 |